Weather History for KOOA - January, 2013

Change the Weather History Date:

Wednesday, January 2, 2013

  Actual Average (KOTM) Record (KOTM)
Temperature  
Mean Temperature 23 °F 23 °F  
Max Temperature 38 °F 32 °F 62 °F (2004)
Min Temperature 8 °F 14 °F -15 °F (1979)
Degree Days  
Heating Degree Days 42 42  
Month to date heating degree days 84  
Since 1 July heating degree days 2589  
Cooling Degree Days 0 0  
Month to date cooling degree days 0  
Year to date cooling degree days 0  
Moisture  
Dew Point 16 °F    
Average Humidity 72    
Maximum Humidity 86    
Minimum Humidity 46    
Precipitation  
Precipitation 0.00 in 0.04 in 0.46 in (1982)
Month to date precipitation 0.07  
Year to date precipitation 0.07  
Sea Level Pressure  
Sea Level Pressure 30.09 in    
Wind  
Wind Speed 9 mph (SW)    
Max Wind Speed 17 mph    
Max Gust Speed 22 mph    
Visibility 10 miles    
Events Snow    
T = Trace of Precipitation, MM = Missing Value Source: NWS Daily Summary

Daily Weather History Graph

Daily Weather History Graph

Search for Another Location

Airport or City:

Trip Planner

Search our weather history database for the weather conditions in past years. The results will help you decide how hot, cold, wet, or windy it might be!

Date:

Astronomy

Jan. 02, 2013 Rise Set
Actual Time 7:35 AM CST 4:52 PM CST
Civil Twilight 7:04 AM CST 5:23 PM CST
Nautical Twilight 6:30 AM CST 5:58 PM CST
Astronomical Twilight 5:56 AM CST 6:32 PM CST
Moon 10:29 PM CST (1/2) 10:14 AM CST (1/2)
Length of Visible Light 10h 19m
Length of Day
9h 17m
Waning Gibbous, 75% of the Moon is Illuminated
Jan 2
Waning Gibbous
Jan 4
Last Quarter
Jan 11
New
Jan 18
First Quarter
Jan 26
Full

Hourly Weather History & Observations

Time (CST) Temp. Windchill Dew Point Humidity Pressure Visibility Wind Dir Wind Speed Gust Speed Precip Events Conditions
12:15 AM 8.6 °F -3.7 °F 3.9 °F 81% 30.18 in 10.0 mi South 8.1 mph - N/A   Clear
12:35 AM 9.7 °F -2.4 °F 5.0 °F 81% 30.19 in 10.0 mi South 8.1 mph - N/A   Clear
12:55 AM 9.3 °F -1.7 °F 4.5 °F 81% 30.18 in 10.0 mi South 6.9 mph - N/A   Clear
1:15 AM 9.5 °F -0.3 °F 4.5 °F 80% 30.17 in 10.0 mi South 5.8 mph - N/A   Clear
1:35 AM 9.3 °F -1.7 °F 4.1 °F 79% 30.15 in 10.0 mi South 6.9 mph - N/A   Clear
1:55 AM 9.9 °F -2.2 °F 4.3 °F 78% 30.15 in 10.0 mi South 8.1 mph - N/A   Clear
2:15 AM 9.9 °F -1.1 °F 4.5 °F 79% 30.15 in 10.0 mi South 6.9 mph - N/A   Clear
2:35 AM 10.2 °F -2.7 °F 4.6 °F 78% 30.15 in 10.0 mi South 9.2 mph - N/A   Clear
2:55 AM 10.9 °F -0.8 °F 5.2 °F 78% 30.14 in 10.0 mi South 8.1 mph - N/A   Clear
3:15 AM 10.2 °F -1.7 °F 5.0 °F 79% 30.13 in 10.0 mi South 8.1 mph - N/A   Clear
3:35 AM 10.2 °F -0.6 °F 5.2 °F 80% 30.12 in 10.0 mi South 6.9 mph - N/A   Clear
3:55 AM 10.0 °F 0.4 °F 5.0 °F 80% 30.12 in 10.0 mi South 5.8 mph - N/A   Clear
4:15 AM 10.2 °F 0.6 °F 5.0 °F 79% 30.10 in 10.0 mi South 5.8 mph - N/A   Clear
4:35 AM 10.6 °F -0.2 °F 5.4 °F 79% 30.10 in 10.0 mi South 6.9 mph - N/A   Clear
4:55 AM 10.4 °F -0.4 °F 5.7 °F 81% 30.10 in 10.0 mi South 6.9 mph - N/A   Clear
5:15 AM 10.8 °F 1.2 °F 5.7 °F 80% 30.10 in 10.0 mi South 5.8 mph - N/A   Clear
5:35 AM 11.1 °F 0.4 °F 5.9 °F 80% 30.10 in 10.0 mi South 6.9 mph - N/A   Clear
5:55 AM 10.2 °F 0.6 °F 5.2 °F 80% 30.10 in 10.0 mi South 5.8 mph - N/A   Clear
6:15 AM 10.2 °F -1.7 °F 5.4 °F 81% 30.10 in 10.0 mi South 8.1 mph - N/A   Clear
6:35 AM 10.4 °F -0.4 °F 5.7 °F 81% 30.10 in 10.0 mi South 6.9 mph - N/A   Clear
6:55 AM 10.2 °F -0.6 °F 5.7 °F 82% 30.09 in 10.0 mi South 6.9 mph - N/A   Clear
7:15 AM 11.1 °F 0.4 °F 6.6 °F 82% 30.09 in 10.0 mi South 6.9 mph - N/A   Clear
7:35 AM 11.1 °F -0.6 °F 6.8 °F 83% 30.09 in 10.0 mi South 8.1 mph - N/A   Clear
7:55 AM 12.0 °F 0.5 °F 7.7 °F 83% 30.08 in 10.0 mi South 8.1 mph - N/A   Clear
8:15 AM 13.8 °F 1.0 °F 9.5 °F 83% 30.08 in 10.0 mi South 10.4 mph - N/A   Clear
8:35 AM 15.8 °F 5.1 °F 11.5 °F 83% 30.08 in 10.0 mi South 8.1 mph - N/A   Clear
8:55 AM 19.0 °F 10.0 °F 14.0 °F 81% 30.08 in 10.0 mi SSW 6.9 mph - N/A   Clear
9:15 AM 21.4 °F 11.1 °F 15.4 °F 78% 30.08 in 10.0 mi SW 9.2 mph - N/A   Clear
9:35 AM 23.4 °F 12.8 °F 16.9 °F 76% 30.08 in 10.0 mi SW 10.4 mph - N/A   Clear
9:55 AM 25.5 °F 14.3 °F 17.6 °F 72% 30.08 in 10.0 mi SW 12.7 mph - N/A   Clear
10:15 AM 27.1 °F 15.9 °F 18.1 °F 69% 30.07 in 10.0 mi SW 13.8 mph - N/A   Clear
10:35 AM 28.8 °F 17.5 °F 18.3 °F 65% 30.08 in 10.0 mi SW 15.0 mph - N/A   Clear
10:55 AM 30.2 °F 19.3 °F 18.5 °F 62% 30.07 in 10.0 mi SW 15.0 mph - N/A   Clear
11:15 AM 31.6 °F 21.2 °F 18.5 °F 58% 30.07 in 10.0 mi WSW 15.0 mph - N/A   Clear
11:35 AM 32.0 °F 22.1 °F 18.3 °F 57% 30.06 in 10.0 mi WSW 13.8 mph - N/A   Clear
11:55 AM 33.6 °F 24.6 °F 18.5 °F 54% 30.05 in 10.0 mi SW 12.7 mph 18.4 mph N/A   Clear
12:15 PM 34.7 °F 25.9 °F 18.7 °F 52% 30.04 in 10.0 mi WSW 12.7 mph - N/A   Clear
12:35 PM 35.8 °F 27.8 °F 18.9 °F 50% 30.03 in 10.0 mi WSW 11.5 mph - N/A   Clear
12:55 PM 37.0 °F 29.3 °F 19.2 °F 49% 30.03 in 10.0 mi WSW 11.5 mph 18.4 mph N/A   Clear
1:15 PM 37.9 °F 30.0 °F 19.6 °F 48% 30.02 in 10.0 mi WSW 12.7 mph - N/A   Clear
1:35 PM 38.5 °F 29.6 °F 19.4 °F 46% 30.02 in 10.0 mi WSW 16.1 mph - N/A   Clear
1:55 PM 38.3 °F 29.0 °F 19.2 °F 46% 30.02 in 10.0 mi West 17.3 mph - N/A   Scattered Clouds
2:15 PM 38.1 °F 29.1 °F 19.8 °F 48% 30.02 in 10.0 mi West 16.1 mph 21.9 mph N/A   Clear
2:35 PM 37.8 °F 29.8 °F 20.1 °F 49% 30.02 in 10.0 mi West 12.7 mph - N/A   Clear
2:55 PM 36.5 °F 28.2 °F 20.1 °F 52% 30.02 in 10.0 mi WNW 12.7 mph - N/A   Scattered Clouds
3:15 PM 35.8 °F 27.3 °F 20.5 °F 54% 30.02 in 10.0 mi WNW 12.7 mph - N/A   Scattered Clouds
3:35 PM 32.4 °F 26.0 °F 21.4 °F 64% 30.03 in 10.0 mi NW 6.9 mph - N/A   Mostly Cloudy
3:55 PM 32.9 °F 23.7 °F 21.4 °F 63% 30.05 in 10.0 mi WNW 12.7 mph - N/A   Overcast
4:15 PM 32.2 °F 25.0 °F 21.7 °F 65% 30.05 in 10.0 mi WNW 8.1 mph - N/A   Overcast
4:35 PM 32.0 °F 24.8 °F 22.1 °F 67% 30.06 in 10.0 mi West 8.1 mph - N/A   Overcast
4:55 PM 32.0 °F 23.6 °F 21.9 °F 66% 30.06 in 10.0 mi West 10.4 mph - N/A   Overcast
5:15 PM 31.6 °F 23.7 °F 22.1 °F 68% 30.08 in 10.0 mi West 9.2 mph - N/A   Overcast
5:35 PM 31.3 °F 22.1 °F 21.9 °F 68% 30.09 in 10.0 mi West 11.5 mph - N/A   Overcast
5:55 PM 30.9 °F 21.2 °F 22.1 °F 70% 30.10 in 10.0 mi West 12.7 mph - N/A Snow Light Snow
6:15 PM 30.6 °F 20.7 °F 22.3 °F 71% 30.10 in 10.0 mi West 12.7 mph - N/A   Overcast
6:35 PM 30.2 °F 20.8 °F 22.5 °F 73% 30.10 in 10.0 mi West 11.5 mph - N/A   Overcast
6:55 PM 30.2 °F 20.8 °F 22.6 °F 73% 30.11 in 10.0 mi West 11.5 mph - N/A   Overcast
7:15 PM 30.0 °F 20.5 °F 22.8 °F 75% 30.11 in 10.0 mi West 11.5 mph - N/A   Overcast
7:35 PM 30.0 °F 20.5 °F 23.0 °F 75% 30.11 in 10.0 mi West 11.5 mph - N/A   Overcast
7:55 PM 30.0 °F 21.7 °F 23.0 °F 75% 30.11 in 10.0 mi West 9.2 mph - N/A   Overcast
8:15 PM 30.0 °F 21.7 °F 23.2 °F 76% 30.10 in 10.0 mi West 9.2 mph - N/A   Overcast
8:35 PM 29.7 °F 22.0 °F 23.5 °F 78% 30.11 in 10.0 mi WSW 8.1 mph - N/A   Overcast
8:55 PM 29.3 °F 20.8 °F 23.7 °F 80% 30.12 in 10.0 mi WSW 9.2 mph - N/A   Overcast
9:15 PM 29.3 °F 20.8 °F 23.9 °F 80% 30.12 in 10.0 mi WSW 9.2 mph - N/A   Overcast
9:35 PM 29.8 °F 20.9 °F 24.6 °F 81% 30.12 in 10.0 mi WSW 10.4 mph - N/A   Overcast
9:55 PM 29.8 °F 21.5 °F 24.8 °F 81% 30.12 in 10.0 mi West 9.2 mph - N/A   Overcast
10:15 PM 29.7 °F 22.0 °F 25.2 °F 83% 30.13 in 10.0 mi WSW 8.1 mph - N/A   Overcast
10:35 PM 29.3 °F 20.8 °F 25.3 °F 85% 30.14 in 10.0 mi WSW 9.2 mph - N/A   Overcast
10:55 PM 30.0 °F 21.1 °F 25.7 °F 84% 30.14 in 10.0 mi West 10.4 mph - N/A   Overcast
11:15 PM 30.2 °F 20.8 °F 26.1 °F 85% 30.15 in 10.0 mi WSW 11.5 mph - N/A   Overcast
11:35 PM 30.2 °F 21.3 °F 26.2 °F 85% 30.14 in 10.0 mi West 10.4 mph - N/A   Overcast
11:55 PM 30.0 °F 21.7 °F 26.2 °F 86% 30.15 in 10.0 mi West 9.2 mph - N/A   Overcast